Folgueroles





Hora UTC 17:35
Temperatura 28.2 ºC
Humitat 49.0 %
Pressió 1016.9 hPa
Pluja 0.0 mm
Velocitat vent 3.2 km/h
Direcció vent S

Dades diàries 2020-07-05



Hora UTC (hivern +1h; estiu +2h)
Temperatura (ºC) Humitat (%) Pressió (hPa) Velocitat vent (km/h) Precipitació (mm)
Hora UTC Aire Humitat Pressió Vel. Dir. Vel. Max Dir. Intent. màx 5 min.
00:05 17.2 92.0 1021.7 0.0 SSE 0.0 0.0
00:10 17.2 92.0 1021.6 0.0 SSE 0.0 0.0
00:15 17.1 92.0 1021.6 0.0 SSE 0.0 0.0
00:20 17.0 92.0 1021.5 0.0 SSE 0.0 0.0
00:25 16.9 92.0 1021.4 0.0 SSE 0.0 0.0
00:30 16.9 92.0 1021.4 0.0 SSE 0.0 0.0
00:35 16.9 92.0 1021.3 0.0 SSE 0.0 0.0
00:40 16.8 92.0 1021.3 0.0 SSE 0.0 0.0
00:45 16.8 92.0 1021.3 0.0 SSE 0.0 0.0
00:50 16.8 92.0 1021.2 0.0 SSE 0.0 0.0
00:55 16.8 92.0 1021.3 0.0 SSE 0.0 0.0
01:00 16.7 92.0 1021.1 0.0 SSE 0.0 0.0
01:05 16.7 93.0 1021.1 0.0 SSE 0.0 0.0
01:10 16.6 93.0 1021.1 0.0 SSE 0.0 0.0
01:15 16.6 93.0 1021.0 0.0 SSE 0.0 0.0
01:20 16.5 92.0 1021.0 0.0 SSE 0.0 0.0
01:25 16.4 93.0 1021.0 0.0 SSE 0.0 0.0
01:30 16.4 93.0 1021.0 0.0 SSE 0.0 0.0
01:35 16.4 93.0 1020.9 0.0 SSE 0.0 0.0
01:40 16.3 93.0 1020.9 0.0 SSE 0.0 0.0
01:45 16.3 93.0 1020.8 0.0 SSE 0.0 0.0
01:50 16.3 93.0 1020.7 0.0 SSE 0.0 0.0
01:55 16.2 93.0 1020.7 0.0 SSE 0.0 0.0
02:00 16.2 93.0 1020.7 0.0 SSE 0.0 0.0
02:05 16.2 93.0 1020.7 0.0 SSE 0.0 0.0
02:10 16.1 93.0 1020.6 0.0 SSE 0.0 0.0
02:15 16.1 93.0 1020.6 0.0 SSE 0.0 0.0
02:20 16.0 93.0 1020.6 0.0 SSE 0.0 0.0
02:25 15.9 93.0 1020.6 0.0 SSE 0.0 0.0
02:30 15.9 93.0 1020.6 0.0 SSE 0.0 0.0
02:35 15.9 94.0 1020.6 0.0 SSE 0.0 0.0
02:40 15.9 94.0 1020.5 0.0 SSE 0.0 0.0
02:45 15.8 93.0 1020.4 0.0 SSE 0.0 0.0
02:50 15.8 93.0 1020.4 0.0 SSE 0.0 0.0
02:55 15.7 94.0 1020.4 0.0 SSE 0.0 0.0
03:00 15.8 94.0 1020.4 0.0 SSE 0.0 0.0
03:05 15.7 94.0 1020.5 0.0 SSE 0.0 0.0
03:10 15.7 94.0 1020.5 0.0 SSE 0.0 0.0
03:15 15.7 94.0 1020.5 0.0 SSE 0.0 0.0
03:20 15.7 94.0 1020.6 0.0 SSE 0.0 0.0
03:25 15.6 94.0 1020.5 0.0 SSE 0.0 0.0
03:30 15.6 94.0 1020.5 0.0 SSE 0.0 0.0
03:35 15.6 94.0 1020.5 0.0 SSE 0.0 0.0
03:40 15.6 94.0 1020.5 0.0 SSE 0.0 0.0
03:45 15.6 94.0 1020.4 0.0 SSE 0.0 0.0
03:50 15.6 94.0 1020.6 0.0 SSE 0.0 0.0
03:55 15.6 94.0 1020.5 0.0 SSE 0.0 0.0
04:00 15.6 94.0 1020.6 0.0 SSE 0.0 0.0
04:05 15.5 94.0 1020.5 0.0 SSE 0.0 0.0
04:10 15.5 94.0 1020.6 0.0 SSE 0.0 0.0
04:15 15.4 94.0 1020.6 0.0 SSE 0.0 0.0
04:20 15.4 94.0 1020.6 0.0 SSE 0.0 0.0
04:25 15.6 95.0 1020.6 0.0 SSE 0.0 0.0
04:30 15.8 95.0 1020.5 0.0 SSE 0.0 0.0
04:35 15.8 95.0 1020.7 0.0 SSE 0.0 0.0
04:40 15.9 95.0 1020.5 0.0 SSE 0.0 0.0
04:45 15.9 95.0 1020.6 0.0 SSE 0.0 0.0
04:50 15.9 95.0 1020.6 0.0 SSE 0.0 0.0
04:55 15.9 95.0 1020.5 0.0 SSE 0.0 0.0
05:00 15.9 95.0 1020.6 0.0 SSE 0.0 0.0
05:05 15.9 95.0 1020.6 0.0 SSE 0.0 0.0
05:10 15.9 95.0 1020.7 0.0 SSE 0.0 0.0
05:15 15.9 95.0 1020.7 0.0 SSE 0.0 0.0
05:20 15.9 95.0 1020.6 0.0 SSE 0.0 0.0
05:25 16.2 96.0 1020.6 0.0 SSE 0.0 0.0
05:30 16.3 96.0 1020.7 0.0 SSE 0.0 0.0
05:35 16.3 96.0 1020.7 0.0 SSE 0.0 0.0
05:40 16.5 96.0 1020.6 0.0 SSE 0.0 0.0
05:45 16.7 96.0 1020.7 0.0 SSE 0.0 0.0
05:50 16.8 96.0 1020.6 0.0 SSE 0.0 0.0
05:55 16.8 95.0 1020.7 0.0 SSE 0.0 0.0
06:00 16.8 95.0 1020.6 0.0 SSE 0.0 0.0
06:05 16.8 95.0 1020.7 0.0 SSE 0.0 0.0
06:10 16.8 94.0 1020.7 0.0 SSE 0.0 0.0
06:15 16.9 94.0 1020.8 0.0 SSE 0.0 0.0
06:20 16.9 93.0 1020.8 0.0 SSE 0.0 0.0
06:25 16.9 93.0 1020.8 0.0 SSE 0.0 0.0
06:30 17.0 92.0 1020.8 3.2 N 4.8 0.0
06:35 17.2 92.0 1020.9 1.6 N 4.8 0.0
06:40 17.3 90.0 1020.8 0.0 NNW 4.8 0.0
06:45 17.2 90.0 1020.9 0.0 NNW 3.2 0.0
06:50 17.3 90.0 1020.9 0.0 NNW 0.0 0.0
06:55 17.4 90.0 1021.0 1.6 NE 3.2 0.0
07:00 17.6 89.0 1021.0 0.0 NE 3.2 0.0
07:05 17.6 89.0 1021.0 0.0 NE 3.2 0.0
07:10 17.6 89.0 1021.0 0.0 NE 1.6 0.0
07:15 17.7 88.0 1021.0 0.0 NE 1.6 0.0
07:20 17.7 87.0 1021.0 0.0 W 1.6 0.0
07:25 17.8 87.0 1021.1 1.6 W 1.6 0.0
07:30 17.9 87.0 1021.1 0.0 W 3.2 0.0
07:35 18.0 87.0 1021.2 0.0 W 1.6 0.0
07:40 18.2 87.0 1021.1 0.0 W 3.2 0.0
07:45 18.3 87.0 1021.2 0.0 W 3.2 0.0
07:50 18.4 87.0 1021.2 0.0 W 3.2 0.0
07:55 18.6 86.0 1021.1 0.0 W 3.2 0.0
08:00 18.7 86.0 1021.1 0.0 W 3.2 0.0
08:05 18.9 87.0 1021.1 1.6 WNW 3.2 0.0
08:10 19.3 87.0 1021.1 0.0 WNW 3.2 0.0
08:15 19.6 86.0 1021.1 0.0 WNW 1.6 0.0
08:20 20.1 87.0 1021.1 0.0 WNW 0.0 0.0
08:25 20.5 84.0 1021.1 1.6 ENE 4.8 0.0
08:30 21.0 82.0 1021.0 0.0 N 8.0 0.0
08:35 21.5 84.0 1020.9 0.0 N 8.0 0.0
08:40 21.8 77.0 1020.9 0.0 SW 4.8 0.0
08:45 22.2 77.0 1020.9 4.8 NNE 8.0 0.0
08:50 22.6 77.0 1020.7 0.0 N 8.0 0.0
08:55 23.0 75.0 1020.7 0.0 ENE 6.4 0.0
09:00 23.3 72.0 1020.6 0.0 ENE 6.4 0.0
09:05 23.7 72.0 1020.6 0.0 NNE 4.8 0.0
09:10 24.0 71.0 1020.7 0.0 NNE 4.8 0.0
09:15 24.3 69.0 1020.7 0.0 N 8.0 0.0
09:20 24.6 69.0 1020.8 0.0 N 8.0 0.0
09:25 25.0 65.0 1020.6 0.0 N 3.2 0.0
09:30 25.2 63.0 1020.6 0.0 N 8.0 0.0
09:35 25.4 62.0 1020.6 0.0 N 8.0 0.0
09:40 25.7 68.0 1020.6 0.0 NNW 4.8 0.0
09:45 25.8 62.0 1020.6 1.6 NNW 3.2 0.0
09:50 26.0 61.0 1020.6 0.0 N 6.4 0.0
09:55 26.2 61.0 1020.5 0.0 N 6.4 0.0
10:00 26.3 59.0 1020.5 3.2 NE 6.4 0.0
10:05 26.6 65.0 1020.4 0.0 NE 6.4 0.0
10:10 26.8 60.0 1020.4 3.2 WNW 4.8 0.0
10:15 26.9 60.0 1020.4 0.0 SW 4.8 0.0
10:20 27.2 58.0 1020.4 3.2 W 4.8 0.0
10:25 27.4 57.0 1020.5 0.0 WSW 4.8 0.0
10:30 27.8 54.0 1020.4 0.0 WSW 4.8 0.0
10:35 27.8 52.0 1020.3 0.0 SW 3.2 0.0
10:40 27.8 56.0 1020.3 0.0 WSW 4.8 0.0
10:45 28.0 60.0 1020.3 0.0 W 4.8 0.0
10:50 28.1 56.0 1020.2 1.6 WSW 6.4 0.0
10:55 27.9 55.0 1020.2 0.0 N 6.4 0.0
11:00 28.0 57.0 1020.1 0.0 NNE 6.4 0.0
11:05 27.9 55.0 1020.1 1.6 NE 4.8 0.0
11:10 27.9 55.0 1020.0 0.0 NE 6.4 0.0
11:15 27.9 55.0 1019.9 0.0 NE 6.4 0.0
11:20 27.8 53.0 1020.2 0.0 SSW 9.7 0.0
11:25 28.0 57.0 1019.9 0.0 SSW 9.7 0.0
11:30 28.3 61.0 1019.8 0.0 W 4.8 0.0
11:35 28.6 54.0 1019.8 0.0 WNW 4.8 0.0
11:40 28.7 52.0 1019.6 1.6 ENE 4.8 0.0
11:45 28.8 55.0 1019.6 0.0 W 6.4 0.0
11:50 29.1 56.0 1019.6 1.6 W 8.0 0.0
11:55 29.3 53.0 1019.7 1.6 NNW 8.0 0.0
12:00 29.4 49.0 1019.5 0.0 WNW 4.8 0.0
12:05 29.3 50.0 1019.5 6.4 NNE 8.0 0.0
12:10 29.6 53.0 1019.4 1.6 SSW 8.0 0.0
12:15 29.7 50.0 1019.4 1.6 S 8.0 0.0
12:20 29.9 48.0 1019.3 0.0 SSW 8.0 0.0
12:25 30.1 46.0 1019.2 3.2 WNW 8.0 0.0
12:30 30.2 46.0 1019.3 1.6 WSW 9.7 0.0
12:35 30.3 46.0 1019.3 0.0 W 6.4 0.0
12:40 30.3 43.0 1019.2 0.0 W 4.8 0.0
12:45 30.4 43.0 1019.1 1.6 WSW 4.8 0.0
12:50 30.6 45.0 1019.1 1.6 W 6.4 0.0
12:55 30.7 44.0 1019.1 0.0 W 6.4 0.0
13:00 30.8 46.0 1019.0 0.0 W 4.8 0.0
13:05 30.8 45.0 1019.0 0.0 SW 6.4 0.0
13:10 30.8 44.0 1018.9 0.0 SSW 6.4 0.0
13:15 30.9 46.0 1018.9 0.0 SW 3.2 0.0
13:20 30.8 45.0 1018.9 3.2 NW 3.2 0.0
13:25 30.7 43.0 1018.8 1.6 E 8.0 0.0
13:30 30.7 46.0 1018.7 3.2 SSW 4.8 0.0
13:35 30.9 47.0 1018.7 0.0 SSE 4.8 0.0
13:40 31.2 46.0 1018.6 0.0 SSE 6.4 0.0
13:45 31.3 45.0 1018.6 1.6 NNW 4.8 0.0
13:50 31.4 45.0 1018.6 1.6 WNW 6.4 0.0
13:55 31.4 43.0 1018.5 0.0 NW 8.0 0.0
14:00 31.4 43.0 1018.4 0.0 WNW 4.8 0.0
14:05 31.3 42.0 1018.3 0.0 NW 4.8 0.0
14:10 31.2 42.0 1018.4 0.0 WSW 4.8 0.0
14:15 31.3 45.0 1018.2 0.0 WNW 4.8 0.0
14:20 31.3 44.0 1018.2 0.0 WNW 11.3 0.0
14:25 31.4 44.0 1018.3 1.6 WSW 11.3 0.0
14:30 31.5 42.0 1018.1 3.2 NNE 6.4 0.0
14:35 31.4 42.0 1018.2 1.6 SSW 6.4 0.0
14:40 31.3 39.0 1018.1 6.4 S 12.9 0.0
14:45 31.1 44.0 1017.9 0.0 SW 12.9 0.0
14:50 31.2 42.0 1018.0 0.0 SW 3.2 0.0
14:55 31.3 44.0 1017.9 1.6 WNW 3.2 0.0
15:00 31.3 43.0 1017.8 3.2 NNW 4.8 0.0
15:05 31.1 43.0 1017.8 1.6 W 6.4 0.0
15:10 31.1 44.0 1017.8 1.6 SW 6.4 0.0
15:15 30.9 43.0 1017.8 4.8 N 6.4 0.0
15:20 30.9 45.0 1017.6 0.0 WNW 6.4 0.0
15:25 30.8 45.0 1017.6 0.0 W 8.0 0.0
15:30 30.7 45.0 1017.6 1.6 W 11.3 0.0
15:35 30.5 45.0 1017.6 0.0 W 11.3 0.0
15:40 30.4 48.0 1017.4 1.6 SSE 9.7 0.0
15:45 30.2 50.0 1017.3 1.6 WSW 9.7 0.0
15:50 30.1 51.0 1017.3 0.0 W 6.4 0.0
15:55 29.9 47.0 1017.2 9.7 SW 17.7 0.0
16:00 29.7 49.0 1017.2 1.6 NE 17.7 0.0
16:05 29.5 52.0 1017.2 1.6 WNW 8.0 0.0
16:10 29.5 52.0 1017.1 1.6 ESE 6.4 0.0
16:15 29.4 51.0 1017.2 8.0 NW 8.0 0.0
16:20 29.3 52.0 1017.2 1.6 S 11.3 0.0
16:25 29.2 51.0 1017.1 0.0 SSW 9.7 0.0
16:30 29.1 49.0 1017.0 1.6 S 12.9 0.0
16:35 28.9 52.0 1017.0 1.6 SSE 12.9 0.0
16:40 28.8 53.0 1017.0 1.6 NNW 9.7 0.0
16:45 28.8 53.0 1017.0 0.0 SW 8.0 0.0
16:50 28.7 53.0 1017.0 0.0 SSW 8.0 0.0
16:55 28.7 53.0 1016.9 3.2 SW 11.3 0.0
17:00 28.6 51.0 1016.8 1.6 SSE 11.3 0.0
17:05 28.5 53.0 1016.8 4.8 NW 9.7 0.0
17:10 28.4 52.0 1016.7 0.0 NNW 9.7 0.0
17:15 28.3 51.0 1016.8 0.0 SSW 8.0 0.0
17:20 28.3 51.0 1016.8 1.6 WSW 8.0 0.0
17:25 28.2 49.0 1016.8 1.6 SSW 11.3 0.0
17:30 28.3 50.0 1016.9 1.6 SE 11.3 0.0
17:35 28.2 49.0 1016.9 3.2 S 6.4 0.0
Màxima 31.5 96.0 1021.7 9.7 SW 17.7 0.0
Mínima 15.4 39.0 1016.7
Total 0.0